Location: Carri�res
(48.9069°N, 2.1792°E)
Time: 03:37:32
(UTC+00:00)

CZ-4C R/B - Pass Details

Date: 17 January 2021
Orbit: 617 x 1385 km, 63.4° (Epoch: 26 February)

Event Time Altitude Azimuth Distance (km) Brightness Sun altitude
Rises 17:14:56 0° 220° (SW) 3,033 6.4 -8.1°
Reaches altitude 10° 17:17:05 10° 221° (SW) 2,190 5.5 -8.4°
Maximum altitude 17:22:04 88° 311° (NW) 812 2.2 -9.2°
Drops below altitude 10° 17:28:11 10° 42° (NE) 2,660 4.3 -10.1°
Enters shadow 17:28:33 - 42° (NE) 2,798 4.4 -10.2°
